Change the Weather History Date:

Friday, November 8, 2013

  Actual Average Record
Temperature  
Mean Temperature 52 °F -  
Max Temperature 55 °F 47 °F 62 °F (2005)
Min Temperature 48 °F 38 °F 35 °F (2001)
Degree Days  
Heating Degree Days 14    
Growing Degree Days 2 (Base 50)    
Moisture  
Dew Point 50 °F    
Average Humidity 91    
Maximum Humidity 100    
Minimum Humidity 71    
Precipitation  
Precipitation 0.00 in - - ()
Sea Level Pressure  
Sea Level Pressure 29.77 in    
Wind  
Wind Speed 9 mph ()    
Max Wind Speed 25 mph    
Max Gust Speed 22 mph    
Visibility 4.9 miles    
Events Rain    
Averages and records for this station are not official NWS values.
T = Trace of Precipitation, MM = Missing Value Source: Averaged Metar Reports

Daily Weather History Graph

Daily Weather History Graph

Search for Another Location

Airport or City:

Trip Planner

Search our weather history database for the weather conditions in past years. The results will help you decide how hot, cold, wet, or windy it might be!

Date:

Astronomy

Nov. 08, 2013 Rise Set
Actual Time 7:48 AM CET 5:18 PM CET
Civil Twilight 7:14 AM CET 5:52 PM CET
Nautical Twilight 6:36 AM CET 6:30 PM CET
Astronomical Twilight 5:59 AM CET 7:07 PM CET
Moon 12:34 PM CET (11/8) 10:21 PM CET (11/8)
Length of Visible Light 10h 37m
Length of Day
9h 29m
Waxing Crescent, 30% of the Moon is Illuminated
Nov 8
Waxing Crescent
Nov 10
First Quarter
Nov 17
Full
Nov 25
Last Quarter
Dec 3
New

Hourly Weather History & Observations

Time (CET) Temp. Dew Point Humidity Pressure Visibility Wind Dir Wind Speed Gust Speed Precip Events Conditions
12:00 AM 53.6 °F 51.8 °F 94% 29.83 in 3.7 mi SW 5.8 mph - N/A Rain Light Rain
12:30 AM 53.6 °F 51.8 °F 94% 29.83 in 3.7 mi SSW 5.8 mph - N/A Rain Light Rain
1:00 AM 53.6 °F 51.8 °F 94% 29.83 in 2.8 mi South 5.8 mph - N/A Rain Light Rain
1:30 AM 53.6 °F 51.8 °F 94% 29.83 in 2.8 mi SSW 5.8 mph - N/A Rain Light Rain
2:00 AM 53.6 °F 51.8 °F 94% 29.83 in 2.8 mi South 6.9 mph - N/A Rain Light Rain
2:30 AM 53.6 °F 51.8 °F 94% 29.83 in 2.8 mi South 6.9 mph - N/A Rain Light Rain
3:00 AM 53.6 °F 51.8 °F 94% 29.83 in 3.7 mi South 8.1 mph - N/A Rain Light Rain
3:30 AM 51.8 °F 51.8 °F 100% 29.83 in 3.7 mi SSW 6.9 mph - N/A   Mostly Cloudy
4:00 AM 51.8 °F 51.8 °F 100% 29.83 in 3.1 mi South 6.9 mph - N/A   Mostly Cloudy
4:30 AM 51.8 °F 51.8 °F 100% 29.83 in 3.1 mi South 6.9 mph - N/A   Scattered Clouds
5:00 AM 51.8 °F 51.8 °F 100% 29.83 in 3.1 mi South 6.9 mph - N/A   Mostly Cloudy
5:30 AM 51.8 °F 51.8 °F 100% 29.83 in 3.7 mi South 6.9 mph - N/A   Mostly Cloudy
6:00 AM 51.8 °F 51.8 °F 100% 29.83 in 2.2 mi South 8.1 mph - N/A Rain Light Rain
6:30 AM 51.8 °F 51.8 °F 100% 29.83 in 1.9 mi South 9.2 mph - N/A Rain Light Rain
7:00 AM 53.6 °F 51.8 °F 94% 29.83 in 3.1 mi South 9.2 mph - N/A Rain Light Rain
7:30 AM 53.6 °F 51.8 °F 94% 29.83 in 3.1 mi South 10.4 mph - N/A   Mostly Cloudy
8:00 AM 53.6 °F 51.8 °F 94% 29.80 in 2.2 mi South 9.2 mph - N/A Rain Light Rain
8:30 AM 53.6 °F 51.8 °F 94% 29.83 in 3.1 mi South 4.6 mph - N/A Rain Light Rain
9:00 AM 53.6 °F 51.8 °F 94% 29.80 in 6.2 mi South 5.8 mph - N/A   Mostly Cloudy
9:30 AM 53.6 °F 51.8 °F 94% 29.80 in 6.2 mi South 8.1 mph - N/A   Mostly Cloudy
10:00 AM 53.6 °F 53.6 °F 100% 29.80 in 5.0 mi South 10.4 mph - N/A   Mostly Cloudy
10:30 AM 53.6 °F 53.6 °F 100% 29.80 in 6.2 mi South 9.2 mph - N/A Rain Light Rain
11:00 AM 53.6 °F 51.8 °F 94% 29.77 in 5.0 mi South 8.1 mph 21.9 mph N/A Rain Light Rain
11:30 AM 53.6 °F 51.8 °F 94% 29.77 in 6.2 mi South 6.9 mph - N/A Rain Light Rain
12:00 PM 53.6 °F 53.6 °F 100% 29.77 in 6.2 mi South 9.2 mph 21.9 mph N/A Rain Light Rain
12:30 PM 53.6 °F 51.8 °F 94% 29.74 in 6.2 mi South 11.5 mph - N/A Rain Light Rain
1:00 PM 53.6 °F 51.8 °F 94% 29.74 in 6.2 mi South 11.5 mph - N/A Rain Light Rain
1:30 PM 53.6 °F 51.8 °F 94% 29.71 in 6.2 mi South 10.4 mph - N/A Rain Light Rain
2:00 PM 53.6 °F 51.8 °F 94% 29.71 in 5.0 mi South 11.5 mph - N/A Rain Light Rain
2:30 PM 53.6 °F 53.6 °F 100% 29.68 in 6.2 mi South 10.4 mph - N/A Rain Light Rain
3:00 PM 55.4 °F 53.6 °F 94% 29.68 in 6.2 mi South 11.5 mph - N/A   Mostly Cloudy
3:30 PM 55.4 °F 53.6 °F 94% 29.68 in 6.2 mi South 13.8 mph - N/A Rain Light Rain
4:00 PM 55.4 °F 53.6 °F 94% 29.68 in 6.2 mi South 11.5 mph - N/A   Mostly Cloudy
4:30 PM 55.4 °F 53.6 °F 94% 29.68 in 6.2 mi SSW 18.4 mph - N/A   Mostly Cloudy
5:00 PM 55.4 °F 51.8 °F 88% 29.68 in 6.2 mi SW 18.4 mph - N/A   Scattered Clouds
5:30 PM 53.6 °F 48.2 °F 82% 29.68 in 6.2 mi SW 19.6 mph - N/A   Scattered Clouds
6:00 PM 53.6 °F 48.2 °F 82% 29.68 in 6.2 mi WSW 19.6 mph - N/A   Scattered Clouds
6:30 PM 53.6 °F 48.2 °F 82% 29.71 in - WSW 16.1 mph - N/A   Clear
7:00 PM 53.6 °F 46.4 °F 77% 29.71 in 6.2 mi WSW 23.0 mph - N/A   Mostly Cloudy
7:30 PM 53.6 °F 46.4 °F 77% 29.71 in 6.2 mi SW 15.0 mph - N/A   Mostly Cloudy
8:00 PM 53.6 °F 46.4 °F 77% 29.71 in 6.2 mi SW 19.6 mph - N/A   Mostly Cloudy
8:30 PM 51.8 °F 44.6 °F 76% 29.74 in 6.2 mi SW 21.9 mph - N/A   Scattered Clouds
9:00 PM 51.8 °F 42.8 °F 71% 29.74 in 6.2 mi West 25.3 mph - N/A   Scattered Clouds
9:30 PM 50.0 °F 42.8 °F 76% 29.77 in 6.2 mi West 21.9 mph - N/A   Mostly Cloudy
10:00 PM 50.0 °F 42.8 °F 76% 29.80 in 6.2 mi West 17.3 mph - N/A   Mostly Cloudy
10:30 PM 48.2 °F 42.8 °F 82% 29.80 in 6.2 mi WSW 12.7 mph - N/A   Mostly Cloudy
11:00 PM 48.2 °F 42.8 °F 82% 29.83 in 6.2 mi WSW 13.8 mph - N/A   Scattered Clouds
11:30 PM 48.2 °F 42.8 °F 82% 29.83 in 6.2 mi WSW 12.7 mph - N/A   Scattered Clouds